DECAYED

STARLINK-1860, 47147 (Decayed)

Orbit data source: Space-Track

STARLINK-1860, 47147 was a payload satellite owned by SpaceX/Seattle (US) in LEO that was launched on Wed, 25 Nov 2020 UTC via an FALCON 9 launch vehicle from the Air Force Eastern Test Range (AFETR). Payload-class satellites include a variety of spacecraft equipped with specific instruments for various scientific and technological missions. These include communications satellites like Starlink; space stations such as the ISS; scientific satellites like the Hubble; Earth observation satellites from companies like Planet Labs, Umbra, and HawkEye 360; GPS; miniature CubeSats for education and research; and military/defense satellites.

Not visible in the next 10 days
Identifier
47147, 2020-088AB
Orbit
Decayed
Country
Flag of USUS
Related business
Manufacturer
SpaceX/Seattle
Mission
Decayed Commercial Communications
Bus & Motor
STARLINK, Unknown motor
Mass
260 kg wet, ~248 kg dry
Launch date (UTC)
2020-11-25 (6 years ago)
Launch vehicle
FALCON 9
Launch site
Air Force Eastern Test Range (AFETR)
Object type
Payload
Rocket body
Debris
Shape & HBR
Box + 1 Pan, 10.1 m
Radar Cross Section
13.562 m², Large (>1 m²)

Expand to show TLE details & history
Last TLE update: 1 year ago

TLE from 1 year ago
0 STARLINK-1860
1 47147U 20088AB  25181.81923962  .10779386  12371-4  12573-2 0  9997
2 47147  52.9886 264.8854 0010331 315.4816 147.7515 16.35746701255345
Epoch: 2025-06-30T19:39Z
TLE epoch observation values (Epoch: 2025-06-30T19:39:42.303Z)
Latitude
51.15341°
Longitude
162.29305°
Altitude
188.888 km
Speed
7.796 km/s
True Right ascension
01h 05m 22s
True Declination
50° 58' 15"
Sunlit
Object was in daylight at epoch
Visualization orbit readout
Latitude
Unknown
Longitude
Unknown
Altitude
Unknown
Speed
Unknown
Apparent Right ascension
Unknown
Apparent Declination
Unknown
Sunlit
N/A
Visualization observer readout
Local Sidereal Time
21:26:49
Azimuth
Unknown
Elevation
Unknown
Doppler factor
Unknown
Orbital elements
Apogee altitude
184.211 km
Perigee altitude
170.665 km
Semi-major axis
6,555.575 km
Eccentricity
0.00103
Inclination
52.9886°
RAAN
264.8854°
Arg. of periapsis
315.4816°
True anomaly
147.8146°
Mean anomaly
147.7515°
Eccentric anomaly
147.78306°
Mean motion
4.08909 °/min
Orbital period
88.04 mins
BSTAR
0.0012573
Loading maneuver chart data...
Computing Atmospheric mass density...

Documentation

Showing up to 5 results
|